Cleveland, OH

10:57 AM EST on February 24, 2017 (GMT -0500)
Cleveland-Hopkins International

Weather History for KCLE - May, 2013

Change the Weather History Date:

Sunday, May 5, 2013

  Actual Average Record
Temperature  
Mean Temperature 65 °F 56 °F  
Max Temperature 74 °F 66 °F 89 °F (1949)
Min Temperature 56 °F 47 °F 30 °F (1968)
Degree Days  
Heating Degree Days 0 9  
Month to date heating degree days 1 49  
Since 1 July heating degree days 5616 5560  
Cooling Degree Days 0 1  
Month to date cooling degree days 10 5  
Year to date cooling degree days 12 16  
Growing Degree Days 14 (Base 50)    
Moisture  
Dew Point 34 °F    
Average Humidity 34    
Maximum Humidity 51    
Minimum Humidity 17    
Precipitation  
Precipitation 0.00 in 0.11 in 0.99 in (1991)
Month to date precipitation 0.00 0.56  
Year to date precipitation 10.22 12.04  
Snow  
Snow 0.00 in 0.00 in - ()
Month to date snowfall 0.0 0.1  
Since 1 July snowfall 51.7 68.2  
Snow Depth 0.00 in    
Sea Level Pressure  
Sea Level Pressure 30.07 in    
Wind  
Wind Speed 12 mph (ESE)    
Max Wind Speed 22 mph    
Max Gust Speed 27 mph    
Visibility 10 miles    
Events      
T = Trace of Precipitation, MM = Missing Value Source: NWS Daily Summary

Daily Weather History Graph

Daily Weather History Graph

Search for Another Location

Airport or City:

Trip Planner

Search our weather history database for the weather conditions in past years. The results will help you decide how hot, cold, wet, or windy it might be!

Date:

Astronomy

May. 05, 2013 Rise Set
Actual Time 6:19 AM EDT 8:29 PM EDT
Civil Twilight 5:48 AM EDT 9:00 PM EDT
Nautical Twilight 5:11 AM EDT 9:37 PM EDT
Astronomical Twilight 4:30 AM EDT 10:19 PM EDT
Moon 3:52 AM EDT (5/5) 4:25 PM EDT (5/5)
Length of Visible Light 15h 11m
Length of Day
14h 10m
Waning Crescent, 18% of the Moon is Illuminated
May 5
Waning Crescent
May 9
New
May 18
First Quarter
May 25
Full
May 31
Last Quarter

Hourly Weather History & Observations

Time (EDT) Temp. Dew Point Humidity Pressure Visibility Wind Dir Wind Speed Gust Speed Precip Events Conditions
12:51 AM 62.1 °F 41.0 °F 46% 30.11 in 10.0 mi SE 13.8 mph - N/A   Scattered Clouds
1:51 AM 61.0 °F 39.9 °F 46% 30.11 in 10.0 mi SE 12.7 mph - N/A   Scattered Clouds
2:51 AM 59.0 °F 39.9 °F 49% 30.10 in 10.0 mi SE 8.1 mph - N/A   Partly Cloudy
3:51 AM 57.9 °F 39.9 °F 51% 30.10 in 10.0 mi SE 10.4 mph - N/A   Partly Cloudy
4:51 AM 57.0 °F 37.9 °F 49% 30.10 in 10.0 mi SE 12.7 mph - N/A   Partly Cloudy
5:51 AM 57.0 °F 37.9 °F 49% 30.10 in 10.0 mi SE 12.7 mph - N/A   Partly Cloudy
6:51 AM 57.0 °F 39.0 °F 51% 30.11 in 10.0 mi SE 13.8 mph 21.9 mph N/A   Scattered Clouds
7:51 AM 57.9 °F 39.0 °F 49% 30.12 in 10.0 mi SE 13.8 mph - N/A   Mostly Cloudy
8:51 AM 60.1 °F 39.9 °F 47% 30.12 in 10.0 mi SE 9.2 mph - N/A   Mostly Cloudy
9:51 AM 62.1 °F 37.9 °F 41% 30.12 in 10.0 mi SE 15.0 mph 26.5 mph N/A   Mostly Cloudy
10:51 AM 64.0 °F 36.0 °F 35% 30.11 in 10.0 mi SE 16.1 mph 27.6 mph N/A   Mostly Cloudy
11:51 AM 68.0 °F 37.0 °F 32% 30.10 in 10.0 mi ESE 11.5 mph 19.6 mph N/A   Mostly Cloudy
12:51 PM 69.1 °F 37.0 °F 31% 30.08 in 10.0 mi ESE 9.2 mph 19.6 mph N/A   Mostly Cloudy
1:51 PM 71.1 °F 35.1 °F 27% 30.06 in 10.0 mi East 17.3 mph - N/A   Mostly Cloudy
2:51 PM 72.0 °F 37.0 °F 28% 30.05 in 10.0 mi ESE 8.1 mph 21.9 mph N/A   Mostly Cloudy
3:51 PM 73.0 °F 37.0 °F 27% 30.03 in 10.0 mi East 17.3 mph 21.9 mph N/A   Unknown
4:51 PM 73.0 °F 33.1 °F 23% 30.02 in 10.0 mi East 11.5 mph - N/A   Mostly Cloudy
5:51 PM 73.4 °F 32.0 °F 22% 30.01 in 10.0 mi SE 15.0 mph 24.2 mph N/A   Mostly Cloudy
6:51 PM 73.0 °F 26.1 °F 17% 30.00 in 10.0 mi SE 13.8 mph - N/A   Mostly Cloudy
7:51 PM 71.1 °F 26.1 °F 19% 30.01 in 10.0 mi East 10.4 mph - N/A   Mostly Cloudy
8:51 PM 69.1 °F 25.0 °F 19% 30.02 in 10.0 mi ESE 8.1 mph - N/A   Mostly Cloudy
9:51 PM 66.9 °F 26.1 °F 21% 30.03 in 10.0 mi East 5.8 mph - N/A   Mostly Cloudy
10:51 PM 64.9 °F 25.0 °F 22% 30.03 in 10.0 mi ESE 8.1 mph - N/A   Mostly Cloudy
11:51 PM 64.0 °F 23.0 °F 21% 30.03 in 10.0 mi SE 12.7 mph - N/A   Mostly Cloudy